Погода в Байонне

Франция     43°29′29″N   1°28′26″W
темп.,
°C
ветер,
м/с
пор.,
м/с
влажн.,
%
обл.,
%
осадки,
мм/ч
давл.,
гПа
погр.,
м
8 декабря, ср
ср801:00+10з61081100 10.4 1007999
04:00+10зсз91476100 3.3 10071412
07:00+9з12177994 5.5 10061404
10:00+7з81386100 5.8 10081128
13:00+6з101591100 11.4 10091167
16:00+7з81485100 10.3 10091484
19:00+9зсз111567100 14.1 10111497
22:00+9сз101567100 3.1 10131498
9 декабря, чт
чт901:00+9сз101470100 6.0 10151303
04:00+9сз81271100 1.6 10151078
07:00+9сз71084100 3.7 10161130
10:00+9сз4679100 0.9 1016659
13:00+7ююв4593100 6.4 1015386
16:00+6ююв4695100 6.8 1013190
19:00+11зсз31296100 9.4 1013752
22:00+13з101796100 7.9 10131097
10 декабря, пт
пт1001:00+13з121994100 14.1 10121060
04:00+13з112095100 4.6 10111177
07:00+14зсз121989100 11.0 10121218
10:00+12сз71283100 1.2 10151279
13:00+11зсз91480100 2.1 10161389
16:00+11зсз91585100 1.7 10171431
19:00+11сз91580100 3.7 10191388
22:00+10сз81279100 1.4 10211255
11 декабря, сб
сб1101:00+11сз71176100 2.5 10221106
04:00+11сз5976100 0.6 1023871
07:00+10ссз3685100 1.4 1024497
10:00+10сз1289100 0.6 1025239
13:00+10ююв1291100 0.8 1025123
16:00+10ю2393100 0.5 1026138
19:00+10ю2292100 1.2 102797
22:00+11ю2494100 0.5 1027183
12 декабря, вс
вс1201:00+13сз379478 1.8 1028298
04:00+12зюз249314 0.7 102876
07:00+12ююз239499 0.8 102971
10:00+12юз229396 0.2 102958
13:00+14вюв12841 0.3 1028216
16:00+14в34835 0.0 1027168
19:00+11вюв35925 0.0 1027116
22:00+9вюв35915 0.0 1026101